Albert Lea, MN

1:29 AM CST on November 21, 2017 (GMT -0600)
Albert Lea Municipal

Weather History for KAEL - June, 2013

Change the Weather History Date:

Wednesday, June 12, 2013

  Actual Average Record
Temperature  
Mean Temperature 71 °F -  
Max Temperature 78 °F 73 °F 86 °F (2007)
Min Temperature 64 °F 54 °F 46 °F (2006)
Cooling Degree Days 6    
Growing Degree Days 21 (Base 50)    
Moisture  
Dew Point 65 °F    
Average Humidity 80    
Maximum Humidity 94    
Minimum Humidity 65    
Precipitation  
Precipitation 0.82 in - - ()
Sea Level Pressure  
Sea Level Pressure 29.79 in    
Wind  
Wind Speed 9 mph (NE)    
Max Wind Speed 22 mph    
Max Gust Speed 29 mph    
Visibility 9 miles    
Events Rain , Thunderstorm    
Averages and records for this station are not official NWS values.
T = Trace of Precipitation, MM = Missing Value Source: NWS Daily Summary

Daily Weather History Graph

Daily Weather History Graph

Search for Another Location

Airport or City:

Trip Planner

Search our weather history database for the weather conditions in past years. The results will help you decide how hot, cold, wet, or windy it might be!

Date:

Astronomy

Jun. 12, 2013 Rise Set
Actual Time 5:31 AM CDT 8:55 PM CDT
Civil Twilight 4:55 AM CDT 9:31 PM CDT
Nautical Twilight 4:08 AM CDT 10:18 PM CDT
Astronomical Twilight 3:09 AM CDT 11:17 PM CDT
Moon 9:16 AM CDT (6/12) 11:25 PM CDT (6/12)
Length of Visible Light 16h 36m
Length of Day
15h 24m
Waxing Crescent, 14% of the Moon is Illuminated
Jun 12
Waxing Crescent
Jun 16
First Quarter
Jun 23
Full
Jun 29
Last Quarter
Jul 8
New

Hourly Weather History & Observations

Time (CDT) Temp. Dew Point Humidity Pressure Visibility Wind Dir Wind Speed Gust Speed Precip Events Conditions
12:11 AM 71.6 °F 64.4 °F 78% - 10.0 mi ENE 8.1 mph - N/A   Clear
12:32 AM 71.6 °F 64.4 °F 78% 29.82 in 10.0 mi East 13.8 mph 18.4 mph N/A Rain Light Rain
12:52 AM 71.6 °F 64.4 °F 78% 29.87 in 10.0 mi NNE 8.1 mph - N/A Thunderstorm Clear
1:11 AM 71.6 °F 64.4 °F 78% 29.87 in 10.0 mi ENE 4.6 mph - N/A Thunderstorm Thunderstorm
1:32 AM 71.6 °F 64.4 °F 78% 29.90 in 10.0 mi North 4.6 mph - N/A Thunderstorm Thunderstorm
1:51 AM 71.6 °F 64.4 °F 78% 29.87 in 10.0 mi ENE 10.4 mph - N/A Rain , Thunderstorm Light Thunderstorms and Rain
2:12 AM 71.6 °F 64.4 °F 78% 29.84 in 10.0 mi ENE 13.8 mph 19.6 mph N/A Thunderstorm Scattered Clouds
2:31 AM 71.6 °F 64.4 °F 78% 29.84 in 10.0 mi East 11.5 mph 17.3 mph N/A Thunderstorm Thunderstorm
2:52 AM 71.6 °F 62.6 °F 73% 29.84 in 10.0 mi ENE 9.2 mph - N/A Thunderstorm Thunderstorm
3:12 AM 69.8 °F 62.6 °F 78% 29.80 in 10.0 mi East 12.7 mph 18.4 mph N/A Rain Light Rain
3:31 AM 71.6 °F 62.6 °F 73% 29.75 in 10.0 mi ESE 19.6 mph 25.3 mph N/A Rain , Thunderstorm Light Thunderstorms and Rain
3:52 AM 71.6 °F 62.6 °F 73% 29.78 in 10.0 mi SE 10.4 mph 19.6 mph N/A Thunderstorm Thunderstorm
4:11 AM 71.6 °F 64.4 °F 78% 29.85 in 10.0 mi Calm Calm - N/A Rain , Thunderstorm Light Thunderstorms and Rain
4:32 AM 69.8 °F 64.4 °F 83% 29.89 in 7.0 mi Calm Calm - 0.03 in Rain , Thunderstorm Heavy Thunderstorms and Rain
4:51 AM 69.8 °F 66.2 °F 88% 29.87 in 3.0 mi SE 5.8 mph - 0.05 in Rain , Thunderstorm Heavy Thunderstorms and Rain
5:12 AM 69.8 °F 66.2 °F 88% 29.85 in 5.0 mi ESE 12.7 mph - 0.12 in Rain , Thunderstorm Thunderstorms and Rain
5:31 AM 69.8 °F 66.2 °F 88% 29.75 in 5.0 mi ESE 19.6 mph 27.6 mph 0.16 in Rain , Thunderstorm Light Thunderstorms and Rain
5:51 AM 68.0 °F 64.4 °F 88% 29.74 in 10.0 mi SE 12.7 mph 25.3 mph N/A Rain , Thunderstorm Light Thunderstorms and Rain
6:12 AM 68.0 °F 64.4 °F 88% 29.76 in 10.0 mi SSE 17.3 mph 25.3 mph N/A Rain Light Rain
6:31 AM 68.0 °F 64.4 °F 88% 29.73 in 10.0 mi SE 13.8 mph 19.6 mph N/A   Light Drizzle
6:51 AM 69.8 °F 64.4 °F 83% 29.77 in 10.0 mi Calm Calm - N/A   Clear
7:12 AM 69.8 °F 64.4 °F 83% 29.78 in 10.0 mi NNE 3.5 mph - N/A   Scattered Clouds
7:31 AM 69.8 °F 64.4 °F 83% 29.78 in 10.0 mi Calm Calm - N/A   Scattered Clouds
7:51 AM 69.8 °F 66.2 °F 88% 29.78 in 10.0 mi Calm Calm - N/A   Clear
8:12 AM 69.8 °F 66.2 °F 88% 29.78 in 10.0 mi Calm Calm - N/A   Scattered Clouds
8:31 AM 71.6 °F 66.2 °F 83% - 10.0 mi Calm Calm - N/A   Clear
8:51 AM 73.4 °F 66.2 °F 78% 29.79 in 10.0 mi Calm Calm - N/A   Clear
9:12 AM 75.2 °F 66.2 °F 73% 29.79 in 10.0 mi SE 9.2 mph - N/A   Clear
9:31 AM 75.2 °F 66.2 °F 73% 29.79 in 10.0 mi SSE 8.1 mph - N/A   Scattered Clouds
9:51 AM 75.2 °F 66.2 °F 73% 29.80 in 10.0 mi ESE 6.9 mph - N/A   Mostly Cloudy
10:12 AM 75.2 °F 66.2 °F 73% 29.79 in 10.0 mi East 9.2 mph - N/A   Mostly Cloudy
10:31 AM 75.2 °F 66.2 °F 73% 29.79 in 10.0 mi ENE 8.1 mph - N/A   Scattered Clouds
10:51 AM 77.0 °F 66.2 °F 69% 29.79 in 10.0 mi ENE 9.2 mph - N/A   Scattered Clouds
11:12 AM 75.2 °F 66.2 °F 73% 29.79 in 10.0 mi ENE 8.1 mph - N/A   Scattered Clouds
11:31 AM 77.0 °F 66.2 °F 69% 29.78 in 10.0 mi NE 11.5 mph - N/A   Mostly Cloudy
11:52 AM 75.2 °F 68.0 °F 78% 29.78 in 10.0 mi NE 11.5 mph - N/A   Mostly Cloudy
12:12 PM 77.0 °F 68.0 °F 74% 29.76 in 10.0 mi East 15.0 mph - N/A   Scattered Clouds
12:31 PM 78.8 °F 68.0 °F 69% 29.76 in 10.0 mi East 11.5 mph - N/A   Scattered Clouds
12:52 PM 78.8 °F 68.0 °F 69% 29.76 in 10.0 mi East 8.1 mph - N/A   Mostly Cloudy
1:12 PM 77.0 °F 66.2 °F 69% 29.76 in 10.0 mi East 8.1 mph - N/A   Mostly Cloudy
1:31 PM 77.0 °F 66.2 °F 69% 29.75 in 10.0 mi East 10.4 mph - N/A   Mostly Cloudy
1:52 PM 75.2 °F 66.2 °F 73% 29.75 in 10.0 mi NE 10.4 mph - N/A   Mostly Cloudy
2:12 PM 75.2 °F 66.2 °F 73% 29.76 in 10.0 mi NE 8.1 mph - N/A   Overcast
2:31 PM 77.0 °F 66.2 °F 69% 29.75 in 10.0 mi ENE 8.1 mph - N/A   Mostly Cloudy
2:52 PM 75.2 °F 66.2 °F 73% 29.75 in 10.0 mi East 4.6 mph - N/A   Mostly Cloudy
3:11 PM 75.2 °F 66.2 °F 73% 29.75 in 10.0 mi East 5.8 mph - N/A   Overcast
3:32 PM 77.0 °F 66.2 °F 69% 29.75 in 10.0 mi East 6.9 mph - N/A Rain Light Rain
3:51 PM 77.0 °F 68.0 °F 74% 29.74 in 10.0 mi East 9.2 mph - N/A Rain Light Rain
4:11 PM 78.8 °F 66.2 °F 65% 29.73 in 10.0 mi East 11.5 mph - N/A   Scattered Clouds
4:32 PM 77.0 °F 66.2 °F 69% 29.72 in 10.0 mi ENE 11.5 mph - N/A   Scattered Clouds
4:51 PM 75.2 °F 66.2 °F 73% 29.69 in 10.0 mi East 9.2 mph - N/A Thunderstorm Mostly Cloudy
5:11 PM 75.2 °F 66.2 °F 73% 29.67 in 10.0 mi ENE 16.1 mph - N/A Thunderstorm Thunderstorm
5:32 PM 73.4 °F 66.2 °F 78% 29.73 in 3.0 mi NNW 8.1 mph 25.3 mph 0.16 in Rain , Thunderstorm Heavy Thunderstorms and Rain
5:51 PM 71.6 °F 66.2 °F 83% 29.75 in 2.0 mi North 13.8 mph 20.7 mph 0.10 in Rain , Thunderstorm Heavy Thunderstorms and Rain
6:11 PM 68.0 °F 64.4 °F 88% 29.74 in 5.0 mi North 13.8 mph 20.7 mph 0.30 in Rain , Thunderstorm Heavy Thunderstorms and Rain
6:32 PM 68.0 °F 64.4 °F 88% 29.75 in 7.0 mi North 12.7 mph 20.7 mph 0.34 in Rain , Thunderstorm Thunderstorms and Rain
6:51 PM 68.0 °F 64.4 °F 88% 29.74 in 7.0 mi NNE 16.1 mph 25.3 mph 0.01 in Rain Rain
7:11 PM 66.2 °F 64.4 °F 94% 29.76 in 7.0 mi North 21.9 mph 28.8 mph 0.02 in Rain , Thunderstorm Light Thunderstorms and Rain
7:32 PM 66.2 °F 64.4 °F 94% 29.78 in 7.0 mi North 20.7 mph 28.8 mph 0.03 in Rain Rain
7:52 PM 66.2 °F 64.4 °F 94% 29.80 in 7.0 mi North 13.8 mph 26.5 mph 0.01 in Rain Rain
8:12 PM 66.2 °F 64.4 °F 94% 29.81 in 5.0 mi North 13.8 mph 24.2 mph 0.05 in Rain Rain
8:31 PM 66.2 °F 62.6 °F 88% 29.82 in 10.0 mi NNW 15.0 mph 23.0 mph 0.08 in Rain Light Rain
8:52 PM 66.2 °F 62.6 °F 88% 29.82 in 7.0 mi North 12.7 mph 17.3 mph N/A Rain Light Rain
9:12 PM 66.2 °F 62.6 °F 88% 29.82 in 10.0 mi North 10.4 mph 17.3 mph N/A   Scattered Clouds
9:31 PM 66.2 °F 62.6 °F 88% 29.83 in 10.0 mi NNW 8.1 mph - N/A   Clear
9:52 PM 66.2 °F 62.6 °F 88% 29.85 in 10.0 mi NNW 6.9 mph 16.1 mph N/A   Clear
10:11 PM 64.4 °F 60.8 °F 88% 29.86 in 10.0 mi NNW 9.2 mph - N/A   Clear
10:32 PM 64.4 °F 60.8 °F 88% 29.87 in 10.0 mi NW 9.2 mph - N/A   Clear
10:52 PM 64.4 °F 60.8 °F 88% 29.89 in 10.0 mi NW 10.4 mph 16.1 mph N/A   Clear
11:11 PM 64.4 °F 59.0 °F 83% 29.89 in 10.0 mi NNW 8.1 mph - N/A   Clear
11:32 PM 64.4 °F 57.2 °F 77% 29.90 in 10.0 mi NW 8.1 mph - N/A   Clear
11:52 PM 64.4 °F 57.2 °F 77% 29.91 in 10.0 mi NW 8.1 mph - N/A   Scattered Clouds